Time,TemperatureF,DewpointF,PressureIn,WindDirection,WindDirectionDegrees,WindSpeedMPH,WindSpeedGustMPH,Humidity,HourlyPrecipIn,Conditions,Clouds,dailyrainin,SoftwareType,DateUTC
2013-01-05 00:00:00,32.0,26.8,30.02,WSW,257,7.0,12.0,81,0.00,,OVC024,0.00,VWS V14.01,2013-01-05 05:00:00,
2013-01-05 00:01:00,32.0,26.8,30.02,West,260,7.0,13.0,81,0.00,,OVC024,0.00,VWS V14.01,2013-01-05 05:01:00,
2013-01-05 00:05:00,32.0,26.8,30.02,West,278,5.0,12.0,81,0.00,,OVC024,0.00,VWS V14.01,2013-01-05 05:05:00,
2013-01-05 00:10:00,32.0,27.1,30.02,West,280,4.0,12.0,82,0.00,,OVC024,0.00,VWS V14.01,2013-01-05 05:10:00,
2013-01-05 00:15:00,32.0,27.1,30.02,West,260,6.0,12.0,82,0.00,,OVC024,0.00,VWS V14.01,2013-01-05 05:15:00,
2013-01-05 00:21:00,32.0,27.1,30.03,WNW,284,3.0,20.0,82,0.00,,OVC024,0.00,VWS V14.01,2013-01-05 05:21:00,
2013-01-05 00:26:00,31.9,27.0,30.03,WNW,288,3.0,20.0,82,0.00,,OVC024,0.00,VWS V14.01,2013-01-05 05:26:00,
2013-01-05 00:30:00,31.1,25.7,30.06,West,262,7.0,13.0,80,0.00,,OVC,0.00,VWS V14.01,2013-01-05 05:30:00,
2013-01-05 00:31:00,31.9,27.0,30.03,WNW,298,4.0,20.0,82,0.00,,OVC024,0.00,VWS V14.01,2013-01-05 05:31:00,
2013-01-05 00:36:00,31.9,27.3,30.03,WSW,256,6.0,10.0,83,0.00,,OVC024,0.00,VWS V14.01,2013-01-05 05:36:00,
2013-01-05 00:41:00,31.8,27.2,30.03,WSW,250,6.0,10.0,83,0.00,,OVC024,0.00,VWS V14.01,2013-01-05 05:41:00,
2013-01-05 00:46:00,31.6,26.8,30.03,WSW,255,3.0,13.0,82,0.00,,OVC022,0.00,VWS V14.01,2013-01-05 05:46:00,
2013-01-05 00:51:00,31.4,26.5,30.03,West,271,5.0,13.0,82,0.00,,OVC022,0.00,VWS V14.01,2013-01-05 05:51:00,
2013-01-05 00:56:00,31.4,26.5,30.04,West,271,5.0,13.0,82,0.00,,OVC022,0.00,VWS V14.01,2013-01-05 05:56:00,
2013-01-05 01:00:00,30.9,25.2,30.08,West,269,2.0,12.0,79,0.00,,OVC,0.00,VWS V14.01,2013-01-05 06:00:00,
2013-01-05 01:01:00,31.3,26.5,30.04,WSW,241,7.0,13.0,82,0.00,,OVC022,0.00,VWS V14.01,2013-01-05 06:01:00,
2013-01-05 01:07:00,31.2,26.4,30.05,West,273,4.0,12.0,82,0.00,,OVC022,0.00,VWS V14.01,2013-01-05 06:07:00,
2013-01-05 01:12:00,31.2,26.4,30.05,WNW,283,3.0,12.0,82,0.00,,OVC022,0.00,VWS V14.01,2013-01-05 06:12:00,
2013-01-05 01:17:00,31.2,26.1,30.05,WNW,289,2.0,13.0,81,0.00,,OVC022,0.00,VWS V14.01,2013-01-05 06:17:00,
2013-01-05 01:22:00,31.2,26.1,30.06,NNE,32,6.0,13.0,81,0.00,,OVC022,0.00,VWS V14.01,2013-01-05 06:22:00,
2013-01-05 01:27:00,31.2,25.8,30.06,NNW,331,2.0,13.0,80,0.00,,OVC022,0.00,VWS V14.01,2013-01-05 06:27:00,
2013-01-05 01:30:00,30.8,25.4,30.09,WSW,238,11.0,14.0,80,0.00,,OVC,0.00,VWS V14.01,2013-01-05 06:30:00,
2013-01-05 01:32:00,31.1,25.7,30.06,WSW,252,6.0,13.0,80,0.00,,OVC022,0.00,VWS V14.01,2013-01-05 06:32:00,
2013-01-05 01:37:00,31.1,25.4,30.06,WSW,253,5.0,10.0,79,0.00,,OVC022,0.00,VWS V14.01,2013-01-05 06:37:00,
2013-01-05 01:42:00,31.0,25.3,30.07,West,280,4.0,10.0,79,0.00,,OVC022,0.00,VWS V14.01,2013-01-05 06:42:00,
2013-01-05 01:48:00,31.0,25.6,30.07,WNW,283,5.0,12.0,80,0.00,,OVC022,0.00,VWS V14.01,2013-01-05 06:48:00,
2013-01-05 01:53:00,30.9,25.5,30.08,West,273,4.0,12.0,80,0.00,,OVC022,0.00,VWS V14.01,2013-01-05 06:53:00,
2013-01-05 01:58:00,30.9,25.5,30.08,WNW,295,5.0,12.0,80,0.00,,OVC022,0.00,VWS V14.01,2013-01-05 06:58:00,
2013-01-05 02:00:00,30.8,25.1,30.10,West,271,8.0,13.0,79,0.00,,OVC,0.00,VWS V14.01,2013-01-05 07:00:00,
2013-01-05 02:03:00,31.0,25.6,30.08,WNW,287,3.0,8.0,80,0.00,,OVC022,0.00,VWS V14.01,2013-01-05 07:03:00,
2013-01-05 02:08:00,30.9,25.5,30.09,WSW,256,7.0,9.0,80,0.00,,OVC022,0.00,VWS V14.01,2013-01-05 07:08:00,
2013-01-05 02:13:00,31.0,25.3,30.09,WSW,255,9.0,11.0,79,0.00,,OVC022,0.00,VWS V14.01,2013-01-05 07:13:00,
2013-01-05 02:18:00,30.9,25.5,30.09,West,262,5.0,13.0,80,0.00,,OVC022,0.00,VWS V14.01,2013-01-05 07:18:00,
2013-01-05 02:24:00,30.9,25.5,30.09,WSW,248,3.0,13.0,80,0.00,,OVC022,0.00,VWS V14.01,2013-01-05 07:24:00,
2013-01-05 02:29:00,30.8,25.4,30.09,WNW,283,4.0,13.0,80,0.00,,OVC022,0.00,VWS V14.01,2013-01-05 07:29:00,
2013-01-05 02:30:00,31.0,25.0,30.11,WSW,257,4.0,11.0,78,0.00,,OVC,0.00,VWS V14.01,2013-01-05 07:30:00,
2013-01-05 02:34:00,30.9,25.5,30.09,West,274,3.0,12.0,80,0.00,,OVC022,0.00,VWS V14.01,2013-01-05 07:34:00,
2013-01-05 02:39:00,30.8,25.4,30.09,WSW,258,2.0,12.0,80,0.00,,OVC022,0.00,VWS V14.01,2013-01-05 07:39:00,
2013-01-05 02:44:00,30.6,25.2,30.09,WSW,253,13.0,13.0,80,0.00,,OVC022,0.00,VWS V14.01,2013-01-05 07:44:00,
2013-01-05 02:49:00,30.6,24.9,30.10,West,281,5.0,13.0,79,0.00,,OVC020,0.00,VWS V14.01,2013-01-05 07:49:00,
2013-01-05 02:54:00,30.6,25.2,30.09,WSW,255,8.0,13.0,80,0.00,,OVC020,0.00,VWS V14.01,2013-01-05 07:54:00,
2013-01-05 02:59:00,30.6,25.2,30.10,West,270,7.0,13.0,80,0.00,,OVC020,0.00,VWS V14.01,2013-01-05 07:59:00,
2013-01-05 03:00:00,31.1,24.8,30.12,WSW,255,5.0,11.0,77,0.00,,OVC,0.00,VWS V14.01,2013-01-05 08:00:00,
2013-01-05 03:04:00,30.8,25.1,30.10,West,274,8.0,8.0,79,0.00,,OVC020,0.00,VWS V14.01,2013-01-05 08:04:00,
2013-01-05 03:10:00,30.8,25.1,30.10,West,270,4.0,9.0,79,0.00,,OVC020,0.00,VWS V14.01,2013-01-05 08:10:00,
2013-01-05 03:15:00,30.9,25.2,30.11,WSW,238,7.0,10.0,79,0.00,,OVC020,0.00,VWS V14.01,2013-01-05 08:15:00,
2013-01-05 03:20:00,30.9,24.9,30.11,West,270,4.0,11.0,78,0.00,,OVC020,0.00,VWS V14.01,2013-01-05 08:20:00,
2013-01-05 03:25:00,30.9,24.9,30.11,WSW,245,6.0,11.0,78,0.00,,OVC020,0.00,VWS V14.01,2013-01-05 08:25:00,
2013-01-05 03:30:00,30.9,24.9,30.11,WSW,253,6.0,11.0,78,0.00,,OVC020,0.00,VWS V14.01,2013-01-05 08:30:00,
2013-01-05 03:35:00,31.0,25.0,30.11,West,269,5.0,10.0,78,0.00,,OVC020,0.00,VWS V14.01,2013-01-05 08:35:00,
2013-01-05 03:40:00,31.0,25.0,30.11,West,270,5.0,10.0,78,0.00,,OVC020,0.00,VWS V14.01,2013-01-05 08:40:00,
2013-01-05 03:45:00,31.0,25.0,30.11,West,267,3.0,10.0,78,0.00,,OVC040,0.00,VWS V14.01,2013-01-05 08:45:00,
2013-01-05 03:50:00,31.0,25.0,30.12,WSW,252,7.0,10.0,78,0.00,,OVC040,0.00,VWS V14.01,2013-01-05 08:50:00,
2013-01-05 03:55:00,31.1,25.0,30.12,WSW,255,4.0,11.0,78,0.00,,OVC040,0.00,VWS V14.01,2013-01-05 08:55:00,
2013-01-05 04:00:00,31.4,24.7,30.14,WSW,252,6.0,9.0,76,0.00,,OVC,0.00,VWS V14.01,2013-01-05 09:00:00,
2013-01-05 04:01:00,31.1,25.0,30.12,WSW,257,5.0,11.0,78,0.00,,OVC040,0.00,VWS V14.01,2013-01-05 09:01:00,
2013-01-05 04:06:00,31.1,24.8,30.12,West,260,2.0,6.0,77,0.00,,OVC040,0.00,VWS V14.01,2013-01-05 09:06:00,
2013-01-05 04:11:00,31.2,24.8,30.12,WSW,258,5.0,7.0,77,0.00,,OVC040,0.00,VWS V14.01,2013-01-05 09:11:00,
2013-01-05 04:16:00,31.3,24.9,30.12,West,262,4.0,8.0,77,0.00,,OVC040,0.00,VWS V14.01,2013-01-05 09:16:00,
2013-01-05 04:21:00,31.3,24.6,30.12,WSW,257,5.0,9.0,76,0.00,,OVC040,0.00,VWS V14.01,2013-01-05 09:21:00,
2013-01-05 04:26:00,31.3,24.9,30.12,West,280,4.0,9.0,77,0.00,,OVC040,0.00,VWS V14.01,2013-01-05 09:26:00,
2013-01-05 04:30:00,31.4,25.0,30.15,WSW,251,6.0,10.0,77,0.00,,OVC,0.00,VWS V14.01,2013-01-05 09:30:00,
2013-01-05 04:31:00,31.3,24.9,30.13,West,280,3.0,9.0,77,0.00,,OVC040,0.00,VWS V14.01,2013-01-05 09:31:00,
2013-01-05 04:36:00,31.3,24.9,30.13,West,260,5.0,6.0,77,0.00,,OVC040,0.00,VWS V14.01,2013-01-05 09:36:00,
2013-01-05 04:41:00,31.3,24.9,30.13,West,270,4.0,6.0,77,0.00,,OVC040,0.00,VWS V14.01,2013-01-05 09:41:00,
2013-01-05 04:46:00,31.3,24.9,30.13,WNW,301,3.0,6.0,77,0.00,,OVC038,0.00,VWS V14.01,2013-01-05 09:46:00,
2013-01-05 04:52:00,31.3,24.9,30.14,West,260,4.0,6.0,77,0.00,,OVC038,0.00,VWS V14.01,2013-01-05 09:52:00,
2013-01-05 04:57:00,31.3,24.9,30.13,West,259,6.0,9.0,77,0.00,,OVC038,0.00,VWS V14.01,2013-01-05 09:57:00,
2013-01-05 05:00:00,31.7,25.3,30.16,West,264,4.0,9.0,77,0.00,,OVC,0.00,VWS V14.01,2013-01-05 10:00:00,
2013-01-05 05:02:00,31.4,24.7,30.14,WSW,257,5.0,9.0,76,0.00,,OVC038,0.00,VWS V14.01,2013-01-05 10:02:00,
2013-01-05 05:07:00,31.5,24.8,30.14,West,270,4.0,8.0,76,0.00,,OVC038,0.00,VWS V14.01,2013-01-05 10:07:00,
2013-01-05 05:12:00,31.4,25.0,30.14,West,264,3.0,8.0,77,0.00,,OVC038,0.00,VWS V14.01,2013-01-05 10:12:00,
2013-01-05 05:17:00,31.4,25.0,30.14,West,269,5.0,8.0,77,0.00,,OVC038,0.00,VWS V14.01,2013-01-05 10:17:00,
2013-01-05 05:22:00,31.4,25.0,30.14,West,280,5.0,10.0,77,0.00,,OVC038,0.00,VWS V14.01,2013-01-05 10:22:00,
2013-01-05 05:27:00,31.4,25.0,30.15,WNW,287,2.0,10.0,77,0.00,,OVC038,0.00,VWS V14.01,2013-01-05 10:27:00,
2013-01-05 05:30:00,32.1,25.7,30.18,West,271,3.0,12.0,77,0.00,,OVC,0.00,VWS V14.01,2013-01-05 10:30:00,
2013-01-05 05:33:00,31.5,25.1,30.15,West,259,4.0,6.0,77,0.00,,OVC038,0.00,VWS V14.01,2013-01-05 10:33:00,
2013-01-05 05:38:00,31.5,25.1,30.15,West,276,3.0,8.0,77,0.00,,OVC038,0.00,VWS V14.01,2013-01-05 10:38:00,
2013-01-05 05:43:00,31.6,25.2,30.16,West,281,3.0,8.0,77,0.00,,OVC038,0.00,VWS V14.01,2013-01-05 10:43:00,
2013-01-05 05:48:00,31.6,25.2,30.16,WNW,287,1.0,8.0,77,0.00,,OVC040,0.00,VWS V14.01,2013-01-05 10:48:00,
2013-01-05 05:53:00,31.6,25.2,30.16,West,277,6.0,8.0,77,0.00,,OVC040,0.00,VWS V14.01,2013-01-05 10:53:00,
2013-01-05 05:58:00,31.6,25.2,30.16,West,267,4.0,8.0,77,0.00,,OVC040,0.00,VWS V14.01,2013-01-05 10:58:00,
2013-01-05 06:00:00,32.2,25.8,30.21,West,275,3.0,7.0,77,0.00,,OVC,0.00,VWS V14.01,2013-01-05 11:00:00,
2013-01-05 06:03:00,31.7,25.3,30.17,West,273,5.0,7.0,77,0.00,,OVC040,0.00,VWS V14.01,2013-01-05 11:03:00,
2013-01-05 06:09:00,31.8,25.4,30.17,West,265,5.0,7.0,77,0.00,,OVC040,0.00,VWS V14.01,2013-01-05 11:09:00,
2013-01-05 06:14:00,31.8,25.4,30.18,West,264,4.0,7.0,77,0.00,,OVC040,0.00,VWS V14.01,2013-01-05 11:14:00,
2013-01-05 06:19:00,31.9,25.5,30.17,West,280,3.0,7.0,77,0.00,,OVC040,0.00,VWS V14.01,2013-01-05 11:19:00,
2013-01-05 06:24:00,32.0,25.6,30.18,West,273,4.0,7.0,77,0.00,,OVC040,0.00,VWS V14.01,2013-01-05 11:24:00,
2013-01-05 06:29:00,32.0,25.6,30.18,West,266,3.0,7.0,77,0.00,,OVC040,0.00,VWS V14.01,2013-01-05 11:29:00,
2013-01-05 06:30:00,32.2,26.1,30.21,West,273,2.0,7.0,78,0.00,,OVC,0.00,VWS V14.01,2013-01-05 11:30:00,
2013-01-05 06:34:00,32.1,25.7,30.18,WNW,297,4.0,6.0,77,0.00,,OVC040,0.00,VWS V14.01,2013-01-05 11:34:00,
2013-01-05 06:39:00,32.1,25.7,30.19,West,264,6.0,6.0,77,0.00,,OVC040,0.00,VWS V14.01,2013-01-05 11:39:00,
2013-01-05 06:44:00,32.1,25.7,30.19,WNW,282,5.0,7.0,77,0.00,,OVC040,0.00,VWS V14.01,2013-01-05 11:44:00,
2013-01-05 06:50:00,32.1,25.7,30.20,West,262,5.0,7.0,77,0.00,,OVC038,0.00,VWS V14.01,2013-01-05 11:50:00,
2013-01-05 06:55:00,32.1,25.7,30.20,WSW,250,6.0,7.0,77,0.00,,OVC038,0.00,VWS V14.01,2013-01-05 11:55:00,
2013-01-05 07:00:00,32.1,25.7,30.20,West,269,4.0,7.0,77,0.00,,OVC038,0.00,VWS V14.01,2013-01-05 12:00:00,
2013-01-05 07:05:00,32.2,25.8,30.21,WNW,282,3.0,4.0,77,0.00,,OVC038,0.00,VWS V14.01,2013-01-05 12:05:00,
2013-01-05 07:10:00,32.1,25.7,30.21,West,270,3.0,7.0,77,0.00,,OVC038,0.00,VWS V14.01,2013-01-05 12:10:00,
2013-01-05 07:15:00,32.1,25.7,30.21,West,271,2.0,7.0,77,0.00,,OVC038,0.00,VWS V14.01,2013-01-05 12:15:00,
2013-01-05 07:20:00,32.2,25.8,30.21,West,268,4.0,7.0,77,0.00,,OVC038,0.00,VWS V14.01,2013-01-05 12:20:00,
2013-01-05 07:25:00,32.2,25.8,30.22,WSW,257,1.0,7.0,77,0.00,,OVC038,0.00,VWS V14.01,2013-01-05 12:25:00,
2013-01-05 07:30:00,32.2,25.8,30.22,West,269,2.0,7.0,77,0.00,,OVC038,0.00,VWS V14.01,2013-01-05 12:30:00,
2013-01-05 07:36:00,32.2,26.1,30.22,West,274,2.0,4.0,78,0.00,,OVC038,0.00,VWS V14.01,2013-01-05 12:36:00,
2013-01-05 07:41:00,32.1,26.0,30.22,WSW,255,5.0,6.0,78,0.00,,OVC038,0.00,VWS V14.01,2013-01-05 12:41:00,
2013-01-05 07:46:00,32.1,26.0,30.22,WSW,245,2.0,7.0,78,0.00,,OVC038,0.00,VWS V14.01,2013-01-05 12:46:00,
2013-01-05 07:51:00,32.1,26.0,30.22,WNW,289,2.0,7.0,78,0.00,,OVC038,0.00,VWS V14.01,2013-01-05 12:51:00,
2013-01-05 07:56:00,32.0,25.9,30.22,West,262,4.0,8.0,78,0.00,,OVC038,0.00,VWS V14.01,2013-01-05 12:56:00,
2013-01-05 08:00:00,32.2,26.7,30.26,WSW,257,3.0,6.0,80,0.00,,OVC,0.00,VWS V14.01,2013-01-05 13:00:00,
2013-01-05 08:01:00,32.1,26.0,30.22,WNW,294,1.0,8.0,78,0.00,,OVC038,0.00,VWS V14.01,2013-01-05 13:01:00,
2013-01-05 08:06:00,32.0,26.2,30.23,West,262,3.0,8.0,79,0.00,,OVC038,0.00,VWS V14.01,2013-01-05 13:06:00,
2013-01-05 08:12:00,32.0,26.2,30.23,West,273,3.0,8.0,79,0.00,,OVC038,0.00,VWS V14.01,2013-01-05 13:12:00,
2013-01-05 08:17:00,31.9,26.1,30.23,WSW,250,6.0,8.0,79,0.00,,OVC038,0.00,VWS V14.01,2013-01-05 13:17:00,
2013-01-05 08:22:00,31.9,26.1,30.24,WSW,257,4.0,8.0,79,0.00,,OVC038,0.00,VWS V14.01,2013-01-05 13:22:00,
2013-01-05 08:27:00,32.0,26.5,30.24,WSW,255,3.0,8.0,80,0.00,,OVC038,0.00,VWS V14.01,2013-01-05 13:27:00,
2013-01-05 08:30:00,32.4,26.9,30.27,West,264,2.0,9.0,80,0.00,,OVC,0.00,VWS V14.01,2013-01-05 13:30:00,
2013-01-05 08:32:00,32.0,26.2,30.24,West,278,4.0,8.0,79,0.00,,OVC038,0.00,VWS V14.01,2013-01-05 13:32:00,
2013-01-05 08:37:00,32.0,26.5,30.25,WSW,248,3.0,6.0,80,0.00,,OVC038,0.00,VWS V14.01,2013-01-05 13:37:00,
2013-01-05 08:42:00,32.0,26.5,30.25,WNW,285,4.0,6.0,80,0.00,,OVC038,0.00,VWS V14.01,2013-01-05 13:42:00,
2013-01-05 08:48:00,32.1,26.6,30.25,West,270,3.0,6.0,80,0.00,,OVC038,0.00,VWS V14.01,2013-01-05 13:48:00,
2013-01-05 08:53:00,32.2,26.7,30.25,West,270,3.0,6.0,80,0.00,,OVC038,0.00,VWS V14.01,2013-01-05 13:53:00,
2013-01-05 08:58:00,32.2,26.7,30.25,West,270,2.0,6.0,80,0.00,,OVC038,0.00,VWS V14.01,2013-01-05 13:58:00,
2013-01-05 09:00:00,32.7,26.9,30.28,West,260,4.0,7.0,79,0.00,,OVC,0.00,VWS V14.01,2013-01-05 14:00:00,
2013-01-05 09:03:00,32.2,26.7,30.26,WSW,255,4.0,4.0,80,0.00,,OVC038,0.00,VWS V14.01,2013-01-05 14:03:00,
2013-01-05 09:08:00,32.2,26.7,30.26,WSW,253,3.0,6.0,80,0.00,,OVC038,0.00,VWS V14.01,2013-01-05 14:08:00,
2013-01-05 09:13:00,32.2,26.7,30.26,WSW,252,2.0,6.0,80,0.00,,OVC038,0.00,VWS V14.01,2013-01-05 14:13:00,
2013-01-05 09:18:00,32.3,26.8,30.26,WNW,283,1.0,6.0,80,0.00,,OVC038,0.00,VWS V14.01,2013-01-05 14:18:00,
2013-01-05 09:24:00,32.4,26.9,30.26,West,268,4.0,6.0,80,0.00,,OVC038,0.00,VWS V14.01,2013-01-05 14:24:00,
2013-01-05 09:29:00,32.4,26.9,30.26,West,276,4.0,6.0,80,0.00,,OVC038,0.00,VWS V14.01,2013-01-05 14:29:00,
2013-01-05 09:30:00,33.0,27.2,30.30,WNW,285,2.0,6.0,79,0.00,,OVC,0.00,VWS V14.01,2013-01-05 14:30:00,
2013-01-05 09:34:00,32.4,26.9,30.27,West,262,3.0,4.0,80,0.00,,OVC038,0.00,VWS V14.01,2013-01-05 14:34:00,
2013-01-05 09:39:00,32.4,26.9,30.27,West,274,3.0,7.0,80,0.00,,OVC038,0.00,VWS V14.01,2013-01-05 14:39:00,
2013-01-05 09:44:00,32.5,27.0,30.28,WSW,252,4.0,7.0,80,0.00,,OVC038,0.00,VWS V14.01,2013-01-05 14:44:00,
2013-01-05 09:49:00,32.5,27.0,30.28,WSW,238,6.0,7.0,80,0.00,,OVC038,0.00,VWS V14.01,2013-01-05 14:49:00,
2013-01-05 09:54:00,32.5,26.7,30.28,WSW,242,3.0,7.0,79,0.00,,OVC038,0.00,VWS V14.01,2013-01-05 14:54:00,
2013-01-05 09:59:00,32.6,27.1,30.28,West,277,2.0,7.0,80,0.00,,OVC038,0.00,VWS V14.01,2013-01-05 14:59:00,
2013-01-05 10:00:00,33.5,26.8,30.29,West,259,3.0,5.0,76,0.00,,OVC,0.00,VWS V14.01,2013-01-05 15:00:00,
2013-01-05 10:04:00,32.7,26.9,30.28,West,262,4.0,4.0,79,0.00,,OVC038,0.00,VWS V14.01,2013-01-05 15:04:00,
2013-01-05 10:10:00,32.7,26.9,30.28,West,263,4.0,6.0,79,0.00,,OVC038,0.00,VWS V14.01,2013-01-05 15:10:00,
2013-01-05 10:15:00,32.8,27.3,30.28,WSW,253,3.0,6.0,80,0.00,,OVC038,0.00,VWS V14.01,2013-01-05 15:15:00,
2013-01-05 10:20:00,32.9,27.1,30.29,West,265,3.0,6.0,79,0.00,,OVC038,0.00,VWS V14.01,2013-01-05 15:20:00,
2013-01-05 10:25:00,32.9,27.1,30.29,West,265,5.0,6.0,79,0.00,,OVC038,0.00,VWS V14.01,2013-01-05 15:25:00,
2013-01-05 10:30:00,32.9,27.1,30.30,West,275,3.0,6.0,79,0.00,,OVC038,0.00,VWS V14.01,2013-01-05 15:30:00,
2013-01-05 10:35:00,33.1,27.3,30.30,West,266,3.0,4.0,79,0.00,,OVC038,0.00,VWS V14.01,2013-01-05 15:35:00,
2013-01-05 10:41:00,33.1,27.0,30.30,WSW,243,4.0,4.0,78,0.00,,OVC038,0.00,VWS V14.01,2013-01-05 15:41:00,
2013-01-05 10:46:00,33.2,27.1,30.30,West,259,2.0,4.0,78,0.00,,OVC038,0.00,VWS V14.01,2013-01-05 15:46:00,
2013-01-05 10:51:00,33.2,26.8,30.29,WSW,243,4.0,5.0,77,0.00,,OVC038,0.00,VWS V14.01,2013-01-05 15:51:00,
2013-01-05 10:56:00,33.3,26.9,30.29,WSW,256,4.0,5.0,77,0.00,,OVC038,0.00,VWS V14.01,2013-01-05 15:56:00,
2013-01-05 11:00:00,34.4,26.7,30.26,West,262,2.0,5.0,73,0.00,,OVC,0.00,VWS V14.01,2013-01-05 16:00:00,
2013-01-05 11:01:00,33.4,26.7,30.29,West,262,3.0,5.0,76,0.00,,OVC038,0.00,VWS V14.01,2013-01-05 16:01:00,
2013-01-05 11:06:00,33.5,27.1,30.29,West,267,4.0,5.0,77,0.00,,OVC038,0.00,VWS V14.01,2013-01-05 16:06:00,
2013-01-05 11:11:00,33.6,26.9,30.29,West,277,1.0,5.0,76,0.00,,OVC038,0.00,VWS V14.01,2013-01-05 16:11:00,
2013-01-05 11:16:00,33.8,27.0,30.29,WSW,253,2.0,5.0,76,0.00,,OVC038,0.00,VWS V14.01,2013-01-05 16:16:00,
2013-01-05 11:21:00,33.8,27.0,30.28,West,275,3.0,5.0,76,0.00,,OVC038,0.00,VWS V14.01,2013-01-05 16:21:00,
2013-01-05 11:26:00,33.8,27.0,30.28,WSW,255,3.0,5.0,76,0.00,,OVC038,0.00,VWS V14.01,2013-01-05 16:26:00,
2013-01-05 11:30:00,34.7,25.6,30.25,West,271,2.0,6.0,69,0.00,,OVC,0.00,VWS V14.01,2013-01-05 16:30:00,
2013-01-05 11:32:00,33.8,26.7,30.28,West,263,2.0,5.0,75,0.00,,OVC038,0.00,VWS V14.01,2013-01-05 16:32:00,
2013-01-05 11:37:00,33.9,26.8,30.27,West,266,2.0,5.0,75,0.00,,OVC038,0.00,VWS V14.01,2013-01-05 16:37:00,
2013-01-05 11:43:00,34.1,27.0,30.27,West,269,2.0,5.0,75,0.00,,OVC038,0.00,VWS V14.01,2013-01-05 16:43:00,
2013-01-05 11:48:00,34.3,27.2,30.26,West,268,2.0,5.0,75,0.00,,OVC038,0.00,VWS V14.01,2013-01-05 16:48:00,
2013-01-05 11:53:00,34.3,26.9,30.26,West,280,2.0,5.0,74,0.00,,OVC038,0.00,VWS V14.01,2013-01-05 16:53:00,
2013-01-05 11:58:00,34.4,26.7,30.26,West,265,2.0,5.0,73,0.00,,OVC038,0.00,VWS V14.01,2013-01-05 16:58:00,
2013-01-05 12:00:00,34.9,25.4,30.24,WSW,255,1.0,4.0,68,0.00,,OVC,0.00,VWS V14.01,2013-01-05 17:00:00,
2013-01-05 12:03:00,34.4,26.7,30.26,WSW,250,2.0,4.0,73,0.00,,OVC038,0.00,VWS V14.01,2013-01-05 17:03:00,
2013-01-05 12:09:00,34.6,26.5,30.26,West,266,1.0,4.0,72,0.00,,OVC038,0.00,VWS V14.01,2013-01-05 17:09:00,
2013-01-05 12:14:00,34.7,26.6,30.26,West,269,3.0,4.0,72,0.00,,OVC038,0.00,VWS V14.01,2013-01-05 17:14:00,
2013-01-05 12:19:00,34.7,26.3,30.25,WSW,253,2.0,4.0,71,0.00,,OVC038,0.00,VWS V14.01,2013-01-05 17:19:00,
2013-01-05 12:24:00,34.8,26.0,30.25,West,273,2.0,4.0,70,0.00,,OVC038,0.00,VWS V14.01,2013-01-05 17:24:00,
2013-01-05 12:29:00,34.7,25.6,30.25,WSW,245,3.0,6.0,69,0.00,,OVC038,0.00,VWS V14.01,2013-01-05 17:29:00,
2013-01-05 12:30:00,35.5,26.0,30.22,NNE,23,2.0,3.0,68,0.00,,OVC,0.00,VWS V14.01,2013-01-05 17:30:00,
2013-01-05 12:34:00,34.7,25.6,30.25,West,273,1.0,3.0,69,0.00,,OVC038,0.00,VWS V14.01,2013-01-05 17:34:00,
2013-01-05 12:39:00,34.7,25.6,30.24,West,265,3.0,3.0,69,0.00,,OVC038,0.00,VWS V14.01,2013-01-05 17:39:00,
2013-01-05 12:45:00,34.7,25.9,30.24,West,264,2.0,4.0,70,0.00,,OVC036,0.00,VWS V14.01,2013-01-05 17:45:00,
2013-01-05 12:50:00,34.8,25.3,30.24,NNE,23,2.0,4.0,68,0.00,,OVC036,0.00,VWS V14.01,2013-01-05 17:50:00,
2013-01-05 12:55:00,34.9,25.1,30.24,WSW,252,2.0,4.0,67,0.00,,OVC036,0.00,VWS V14.01,2013-01-05 17:55:00,
2013-01-05 13:00:00,34.9,25.4,30.24,West,271,1.0,4.0,68,0.00,,OVC036,0.00,VWS V14.01,2013-01-05 18:00:00,
2013-01-05 13:05:00,35.0,25.9,30.24,West,263,1.0,2.0,69,0.00,,OVC036,0.00,VWS V14.01,2013-01-05 18:05:00,
2013-01-05 13:10:00,35.2,26.1,30.23,West,267,1.0,2.0,69,0.00,,OVC036,0.00,VWS V14.01,2013-01-05 18:10:00,
2013-01-05 13:15:00,35.3,25.8,30.23,West,270,1.0,2.0,68,0.00,,OVC036,0.00,VWS V14.01,2013-01-05 18:15:00,
2013-01-05 13:20:00,35.3,25.8,30.23,West,266,1.0,3.0,68,0.00,,OVC036,0.00,VWS V14.01,2013-01-05 18:20:00,
2013-01-05 13:25:00,35.4,26.6,30.22,West,263,1.0,3.0,70,0.00,,OVC036,0.00,VWS V14.01,2013-01-05 18:25:00,
2013-01-05 13:30:00,35.6,25.4,30.21,West,266,1.0,5.0,66,0.00,,OVC,0.00,VWS V14.01,2013-01-05 18:30:00,
2013-01-05 13:31:00,35.5,26.0,30.22,West,277,1.0,3.0,68,0.00,,OVC036,0.00,VWS V14.01,2013-01-05 18:31:00,
2013-01-05 13:36:00,35.6,26.1,30.22,WSW,255,2.0,2.0,68,0.00,,OVC036,0.00,VWS V14.01,2013-01-05 18:36:00,
2013-01-05 13:41:00,35.7,26.2,30.22,WSW,257,1.0,3.0,68,0.00,,OVC036,0.00,VWS V14.01,2013-01-05 18:41:00,
2013-01-05 13:46:00,35.6,25.7,30.22,West,263,2.0,3.0,67,0.00,,OVC034,0.00,VWS V14.01,2013-01-05 18:46:00,
2013-01-05 13:51:00,35.5,26.0,30.22,West,264,2.0,3.0,68,0.00,,OVC034,0.00,VWS V14.01,2013-01-05 18:51:00,
2013-01-05 13:56:00,35.3,25.8,30.22,WSW,257,2.0,4.0,68,0.00,,OVC034,0.00,VWS V14.01,2013-01-05 18:56:00,
2013-01-05 14:00:00,35.3,24.7,30.23,West,265,1.0,2.0,65,0.00,,OVC,0.00,VWS V14.01,2013-01-05 19:00:00,
2013-01-05 14:02:00,35.3,25.8,30.22,West,265,2.0,4.0,68,0.00,,OVC034,0.00,VWS V14.01,2013-01-05 19:02:00,
2013-01-05 14:07:00,35.3,25.5,30.22,WSW,256,2.0,5.0,67,0.00,,OVC034,0.00,VWS V14.01,2013-01-05 19:07:00,
2013-01-05 14:12:00,35.2,25.7,30.22,West,263,1.0,5.0,68,0.00,,OVC034,0.00,VWS V14.01,2013-01-05 19:12:00,
2013-01-05 14:17:00,35.3,25.5,30.21,SW,236,1.0,5.0,67,0.00,,OVC034,0.00,VWS V14.01,2013-01-05 19:17:00,
2013-01-05 14:22:00,35.6,25.4,30.21,NW,324,1.0,5.0,66,0.00,,OVC034,0.00,VWS V14.01,2013-01-05 19:22:00,
2013-01-05 14:27:00,35.6,25.4,30.22,West,260,2.0,5.0,66,0.00,,OVC034,0.00,VWS V14.01,2013-01-05 19:27:00,
2013-01-05 14:30:00,35.2,25.0,30.22,West,262,1.0,1.0,66,0.00,,OVC,0.00,VWS V14.01,2013-01-05 19:30:00,
2013-01-05 14:32:00,35.6,25.4,30.21,West,269,0.0,5.0,66,0.00,,OVC034,0.00,VWS V14.01,2013-01-05 19:32:00,
2013-01-05 14:37:00,35.5,25.3,30.21,WSW,245,1.0,2.0,66,0.00,,OVC034,0.00,VWS V14.01,2013-01-05 19:37:00,
2013-01-05 14:42:00,35.6,25.4,30.22,West,277,1.0,2.0,66,0.00,,OVC034,0.00,VWS V14.01,2013-01-05 19:42:00,
2013-01-05 14:47:00,35.6,25.4,30.22,WSW,241,1.0,2.0,66,0.00,,OVC034,0.00,VWS V14.01,2013-01-05 19:47:00,
2013-01-05 14:52:00,35.6,25.4,30.22,West,269,0.0,2.0,66,0.00,,OVC034,0.00,VWS V14.01,2013-01-05 19:52:00,
2013-01-05 14:57:00,35.4,25.2,30.22,WSW,252,0.0,2.0,66,0.00,,OVC034,0.00,VWS V14.01,2013-01-05 19:57:00,
2013-01-05 15:00:00,34.4,25.0,30.22,WSW,253,2.0,3.0,68,0.00,,OVC,0.00,VWS V14.01,2013-01-05 20:00:00,
2013-01-05 15:02:00,35.3,24.7,30.23,West,265,1.0,2.0,65,0.00,,OVC034,0.00,VWS V14.01,2013-01-05 20:02:00,
2013-01-05 15:07:00,35.2,25.0,30.22,West,262,0.0,1.0,66,0.00,,OVC034,0.00,VWS V14.01,2013-01-05 20:07:00,
2013-01-05 15:13:00,35.3,24.7,30.22,West,262,1.0,1.0,65,0.00,,OVC034,0.00,VWS V14.01,2013-01-05 20:13:00,
2013-01-05 15:18:00,35.3,25.1,30.22,West,262,0.0,1.0,66,0.00,,OVC034,0.00,VWS V14.01,2013-01-05 20:18:00,
2013-01-05 15:23:00,35.4,25.2,30.22,West,263,0.0,1.0,66,0.00,,OVC034,0.00,VWS V14.01,2013-01-05 20:23:00,
2013-01-05 15:28:00,35.4,25.2,30.22,West,264,0.0,1.0,66,0.00,,OVC034,0.00,VWS V14.01,2013-01-05 20:28:00,
2013-01-05 15:30:00,33.8,25.1,30.21,West,263,0.0,3.0,70,0.00,,OVC,0.00,VWS V14.01,2013-01-05 20:30:00,
2013-01-05 15:33:00,35.2,25.0,30.22,West,262,0.0,1.0,66,0.00,,OVC034,0.00,VWS V14.01,2013-01-05 20:33:00,
2013-01-05 15:38:00,35.1,25.3,30.22,WSW,258,1.0,1.0,67,0.00,,OVC034,0.00,VWS V14.01,2013-01-05 20:38:00,
2013-01-05 15:43:00,34.8,25.0,30.22,West,260,1.0,1.0,67,0.00,,OVC034,0.00,VWS V14.01,2013-01-05 20:43:00,
2013-01-05 15:48:00,34.8,25.3,30.23,West,259,0.0,1.0,68,0.00,,OVC034,0.00,VWS V14.01,2013-01-05 20:48:00,
2013-01-05 15:53:00,34.8,25.0,30.22,WSW,255,2.0,2.0,67,0.00,,OVC034,0.00,VWS V14.01,2013-01-05 20:53:00,
2013-01-05 15:59:00,34.6,25.1,30.22,West,262,1.0,3.0,68,0.00,,OVC034,0.00,VWS V14.01,2013-01-05 20:59:00,
2013-01-05 16:00:00,32.4,25.7,30.20,West,263,0.0,0.0,76,0.00,,OVC,0.00,VWS V14.01,2013-01-05 21:00:00,
2013-01-05 16:04:00,34.4,25.0,30.22,West,273,2.0,2.0,68,0.00,,OVC036,0.00,VWS V14.01,2013-01-05 21:04:00,
2013-01-05 16:09:00,34.3,25.2,30.23,West,260,2.0,3.0,69,0.00,,OVC036,0.00,VWS V14.01,2013-01-05 21:09:00,
2013-01-05 16:14:00,34.2,24.8,30.22,WSW,255,2.0,3.0,68,0.00,,OVC036,0.00,VWS V14.01,2013-01-05 21:14:00,
2013-01-05 16:19:00,34.1,25.0,30.22,West,260,2.0,3.0,69,0.00,,OVC036,0.00,VWS V14.01,2013-01-05 21:19:00,
2013-01-05 16:24:00,33.9,24.8,30.21,West,260,0.0,3.0,69,0.00,,OVC036,0.00,VWS V14.01,2013-01-05 21:24:00,
2013-01-05 16:29:00,33.8,24.7,30.21,West,263,0.0,3.0,69,0.00,,OVC036,0.00,VWS V14.01,2013-01-05 21:29:00,
2013-01-05 16:30:00,30.8,24.1,30.19,West,263,0.0,1.0,76,0.00,,OVC,0.00,VWS V14.01,2013-01-05 21:30:00,
2013-01-05 16:34:00,33.7,25.3,30.21,West,263,0.0,0.0,71,0.00,,BKN036,0.00,VWS V14.01,2013-01-05 21:34:00,
2013-01-05 16:39:00,33.5,25.8,30.21,West,263,0.0,0.0,73,0.00,,BKN036,0.00,VWS V14.01,2013-01-05 21:39:00,
2013-01-05 16:44:00,33.2,25.8,30.20,West,263,0.0,0.0,74,0.00,,BKN036,0.00,VWS V14.01,2013-01-05 21:44:00,
2013-01-05 16:50:00,32.9,25.5,30.21,West,263,0.0,0.0,74,0.00,,BKN036,0.00,VWS V14.01,2013-01-05 21:50:00,
2013-01-05 16:55:00,32.7,25.7,30.20,West,263,0.0,0.0,75,0.00,,BKN036,0.00,VWS V14.01,2013-01-05 21:55:00,
2013-01-05 17:00:00,32.5,25.8,30.20,West,263,0.0,0.0,76,0.00,,BKN036,0.00,VWS V14.01,2013-01-05 22:00:00,
2013-01-05 17:05:00,32.3,25.6,30.20,West,263,0.0,0.0,76,0.00,,BKN036,0.00,VWS V14.01,2013-01-05 22:05:00,
2013-01-05 17:10:00,32.1,25.4,30.20,West,263,0.0,0.0,76,0.00,,BKN036,0.00,VWS V14.01,2013-01-05 22:10:00,
2013-01-05 17:15:00,31.9,25.2,30.19,West,263,0.0,0.0,76,0.00,,BKN036,0.00,VWS V14.01,2013-01-05 22:15:00,
2013-01-05 17:20:00,31.8,25.1,30.19,West,263,0.0,1.0,76,0.00,,BKN036,0.00,VWS V14.01,2013-01-05 22:20:00,
2013-01-05 17:25:00,31.5,24.5,30.18,West,263,0.0,1.0,75,0.00,,BKN036,0.00,VWS V14.01,2013-01-05 22:25:00,
2013-01-05 17:30:00,31.1,24.4,30.19,West,263,0.0,1.0,76,0.00,,BKN036,0.00,VWS V14.01,2013-01-05 22:30:00,
2013-01-05 17:35:00,30.5,24.2,30.18,West,263,0.0,0.0,77,0.00,,BKN036,0.00,VWS V14.01,2013-01-05 22:35:00,
2013-01-05 17:40:00,29.8,23.8,30.19,West,263,0.0,0.0,78,0.00,,BKN036,0.00,VWS V14.01,2013-01-05 22:40:00,
2013-01-05 17:45:00,29.2,23.5,30.20,West,263,0.0,1.0,79,0.00,,OVC034,0.00,VWS V14.01,2013-01-05 22:45:00,
2013-01-05 17:51:00,28.8,23.4,30.20,West,263,0.0,1.0,80,0.00,,OVC034,0.00,VWS V14.01,2013-01-05 22:51:00,
2013-01-05 17:56:00,28.7,23.3,30.20,WNW,302,1.0,1.0,80,0.00,,OVC034,0.00,VWS V14.01,2013-01-05 22:56:00,
2013-01-05 18:00:00,28.3,23.2,30.18,North,357,0.0,0.0,81,0.00,,OVC,0.00,VWS V14.01,2013-01-05 23:00:00,
2013-01-05 18:01:00,28.7,23.6,30.20,North,356,0.0,2.0,81,0.00,,OVC034,0.00,VWS V14.01,2013-01-05 23:01:00,
2013-01-05 18:06:00,28.8,23.4,30.19,North,356,0.0,1.0,80,0.00,,OVC034,0.00,VWS V14.01,2013-01-05 23:06:00,
2013-01-05 18:11:00,28.9,23.2,30.19,North,356,0.0,1.0,79,0.00,,OVC034,0.00,VWS V14.01,2013-01-05 23:11:00,
2013-01-05 18:16:00,29.0,23.3,30.19,North,356,0.0,1.0,79,0.00,,OVC034,0.00,VWS V14.01,2013-01-05 23:16:00,
2013-01-05 18:21:00,29.0,23.0,30.19,North,357,0.0,1.0,78,0.00,,OVC034,0.00,VWS V14.01,2013-01-05 23:21:00,
2013-01-05 18:26:00,29.0,23.0,30.18,North,356,0.0,1.0,78,0.00,,OVC034,0.00,VWS V14.01,2013-01-05 23:26:00,
2013-01-05 18:30:00,27.7,22.6,30.18,North,356,0.0,0.0,81,0.00,,OVC,0.00,VWS V14.01,2013-01-05 23:30:00,
2013-01-05 18:31:00,28.8,22.8,30.18,North,357,0.0,1.0,78,0.00,,OVC034,0.00,VWS V14.01,2013-01-05 23:31:00,
2013-01-05 18:37:00,28.6,22.9,30.19,North,357,0.0,0.0,79,0.00,,OVC034,0.00,VWS V14.01,2013-01-05 23:37:00,
2013-01-05 18:42:00,28.5,23.1,30.19,North,357,0.0,0.0,80,0.00,,OVC034,0.00,VWS V14.01,2013-01-05 23:42:00,
2013-01-05 18:47:00,28.5,23.4,30.19,North,357,0.0,0.0,81,0.00,,BKN032,0.00,VWS V14.01,2013-01-05 23:47:00,
2013-01-05 18:52:00,28.6,23.5,30.19,North,357,0.0,0.0,81,0.00,,BKN032,0.00,VWS V14.01,2013-01-05 23:52:00,
2013-01-05 18:57:00,28.5,23.4,30.19,North,357,0.0,0.0,81,0.00,,BKN032,0.00,VWS V14.01,2013-01-05 23:57:00,
2013-01-05 19:00:00,27.3,22.5,30.15,North,356,0.0,0.0,82,0.00,,OVC,0.00,VWS V14.01,2013-01-06 00:00:00,
2013-01-05 19:02:00,28.3,23.2,30.18,North,357,0.0,0.0,81,0.00,,BKN032,0.00,VWS V14.01,2013-01-06 00:02:00,
2013-01-05 19:07:00,28.3,23.2,30.18,North,356,0.0,0.0,81,0.00,,BKN032,0.00,VWS V14.01,2013-01-06 00:07:00,
2013-01-05 19:12:00,28.4,23.0,30.18,North,357,0.0,0.0,80,0.00,,BKN032,0.00,VWS V14.01,2013-01-06 00:12:00,
2013-01-05 19:17:00,28.2,22.5,30.17,North,356,0.0,0.0,79,0.00,,CLR,0.00,VWS V14.01,2013-01-06 00:17:00,
2013-01-05 19:22:00,28.0,22.6,30.18,North,356,0.0,0.0,80,0.00,,CLR,0.00,VWS V14.01,2013-01-06 00:22:00,
2013-01-05 19:28:00,27.8,22.4,30.18,North,356,0.0,0.0,80,0.00,,CLR,0.00,VWS V14.01,2013-01-06 00:28:00,
2013-01-05 19:30:00,27.4,22.4,30.15,North,356,0.0,0.0,81,0.00,,OVC,0.00,VWS V14.01,2013-01-06 00:30:00,
2013-01-05 19:33:00,27.7,22.6,30.18,North,357,0.0,0.0,81,0.00,,CLR,0.00,VWS V14.01,2013-01-06 00:33:00,
2013-01-05 19:38:00,27.7,22.6,30.17,North,356,0.0,0.0,81,0.00,,CLR,0.00,VWS V14.01,2013-01-06 00:38:00,
2013-01-05 19:43:00,27.5,22.5,30.17,North,357,0.0,0.0,81,0.00,,CLR,0.00,VWS V14.01,2013-01-06 00:43:00,
2013-01-05 19:48:00,27.5,22.5,30.17,North,357,0.0,0.0,81,0.00,,CLR,0.00,VWS V14.01,2013-01-06 00:48:00,
2013-01-05 19:53:00,27.3,22.2,30.17,North,357,0.0,0.0,81,0.00,,CLR,0.00,VWS V14.01,2013-01-06 00:53:00,
2013-01-05 19:58:00,27.2,22.4,30.16,North,356,0.0,0.0,82,0.00,,CLR,0.00,VWS V14.01,2013-01-06 00:58:00,
2013-01-05 20:00:00,28.4,23.0,30.14,WSW,252,1.0,4.0,80,0.00,,OVC,0.00,VWS V14.01,2013-01-06 01:00:00,
2013-01-05 20:03:00,27.4,22.6,30.15,North,356,0.0,0.0,82,0.00,,CLR,0.00,VWS V14.01,2013-01-06 01:03:00,
2013-01-05 20:08:00,27.4,22.4,30.15,North,357,0.0,0.0,81,0.00,,CLR,0.00,VWS V14.01,2013-01-06 01:08:00,
2013-01-05 20:13:00,27.4,22.4,30.16,North,357,0.0,0.0,81,0.00,,CLR,0.00,VWS V14.01,2013-01-06 01:13:00,
2013-01-05 20:19:00,27.5,22.7,30.16,North,357,0.0,0.0,82,0.00,,CLR,0.00,VWS V14.01,2013-01-06 01:19:00,
2013-01-05 20:24:00,27.5,22.5,30.16,North,356,0.0,0.0,81,0.00,,CLR,0.00,VWS V14.01,2013-01-06 01:24:00,
2013-01-05 20:29:00,27.5,22.5,30.15,North,357,0.0,0.0,81,0.00,,CLR,0.00,VWS V14.01,2013-01-06 01:29:00,
2013-01-05 20:30:00,28.8,23.4,30.15,West,262,1.0,2.0,80,0.00,,OVC,0.00,VWS V14.01,2013-01-06 01:30:00,
2013-01-05 20:34:00,27.3,22.2,30.15,North,356,0.0,0.0,81,0.00,,CLR,0.00,VWS V14.01,2013-01-06 01:34:00,
2013-01-05 20:39:00,27.1,22.1,30.15,North,356,0.0,0.0,81,0.00,,CLR,0.00,VWS V14.01,2013-01-06 01:39:00,
2013-01-05 20:44:00,26.7,21.7,30.15,North,357,0.0,0.0,81,0.00,,CLR,0.00,VWS V14.01,2013-01-06 01:44:00,
2013-01-05 20:49:00,26.6,22.1,30.15,WSW,248,2.0,2.0,83,0.00,,CLR,0.00,VWS V14.01,2013-01-06 01:49:00,
2013-01-05 20:54:00,28.0,22.9,30.15,SW,233,3.0,4.0,81,0.00,,CLR,0.00,VWS V14.01,2013-01-06 01:54:00,
2013-01-05 21:00:00,28.2,22.8,30.14,West,259,1.0,4.0,80,0.00,,CLR,0.00,VWS V14.01,2013-01-06 02:00:00,
2013-01-05 21:05:00,28.6,22.9,30.14,WSW,242,2.0,2.0,79,0.00,,CLR,0.00,VWS V14.01,2013-01-06 02:05:00,
2013-01-05 21:10:00,28.6,22.6,30.14,WSW,245,0.0,2.0,78,0.00,,CLR,0.00,VWS V14.01,2013-01-06 02:10:00,
2013-01-05 21:15:00,28.3,22.6,30.14,West,274,0.0,2.0,79,0.00,,CLR,0.00,VWS V14.01,2013-01-06 02:15:00,
2013-01-05 21:20:00,28.0,22.6,30.14,West,274,0.0,2.0,80,0.00,,CLR,0.00,VWS V14.01,2013-01-06 02:20:00,
2013-01-05 21:25:00,27.7,22.6,30.14,West,274,0.0,2.0,81,0.00,,CLR,0.00,VWS V14.01,2013-01-06 02:25:00,
2013-01-05 21:30:00,28.4,23.3,30.15,West,276,1.0,2.0,81,0.00,,CLR,0.00,VWS V14.01,2013-01-06 02:30:00,
2013-01-05 21:35:00,29.2,23.5,30.15,WSW,245,1.0,3.0,79,0.00,,CLR,0.00,VWS V14.01,2013-01-06 02:35:00,
2013-01-05 21:40:00,29.5,23.5,30.15,WSW,252,1.0,3.0,78,0.00,,CLR,0.00,VWS V14.01,2013-01-06 02:40:00,
2013-01-05 21:46:00,29.5,23.2,30.14,West,260,1.0,3.0,77,0.00,,CLR,0.00,VWS V14.01,2013-01-06 02:46:00,
2013-01-05 21:51:00,29.5,23.2,30.12,West,260,1.0,3.0,77,0.00,,CLR,0.00,VWS V14.01,2013-01-06 02:51:00,
2013-01-05 21:56:00,29.7,23.4,30.11,WSW,245,2.0,4.0,77,0.00,,CLR,0.00,VWS V14.01,2013-01-06 02:56:00,
2013-01-05 22:00:00,30.8,24.1,30.12,WSW,252,5.0,8.0,76,0.00,,OVC,0.00,VWS V14.01,2013-01-06 03:00:00,
2013-01-05 22:01:00,29.9,23.6,30.10,SW,236,0.0,4.0,77,0.00,,CLR,0.00,VWS V14.01,2013-01-06 03:01:00,
2013-01-05 22:06:00,30.0,23.7,30.12,West,260,1.0,1.0,77,0.00,,CLR,0.00,VWS V14.01,2013-01-06 03:06:00,
2013-01-05 22:11:00,30.1,23.5,30.13,SW,235,2.0,6.0,76,0.00,,CLR,0.00,VWS V14.01,2013-01-06 03:11:00,
2013-01-05 22:16:00,30.3,23.7,30.13,WSW,245,1.0,6.0,76,0.00,,CLR,0.00,VWS V14.01,2013-01-06 03:16:00,
2013-01-05 22:21:00,30.3,23.3,30.12,SW,219,1.0,6.0,75,0.00,,CLR,0.00,VWS V14.01,2013-01-06 03:21:00,
2013-01-05 22:26:00,30.3,23.7,30.11,SSE,149,1.0,6.0,76,0.00,,CLR,0.00,VWS V14.01,2013-01-06 03:26:00,
2013-01-05 22:30:00,30.8,24.1,30.11,WSW,247,2.0,7.0,76,0.00,,OVC,0.00,VWS V14.01,2013-01-06 03:30:00,
2013-01-05 22:32:00,30.2,23.6,30.11,SW,219,1.0,6.0,76,0.00,,CLR,0.00,VWS V14.01,2013-01-06 03:32:00,
2013-01-05 22:37:00,30.2,23.6,30.12,WSW,253,5.0,8.0,76,0.00,,CLR,0.00,VWS V14.01,2013-01-06 03:37:00,
2013-01-05 22:42:00,30.3,23.7,30.12,WSW,242,5.0,8.0,76,0.00,,CLR,0.00,VWS V14.01,2013-01-06 03:42:00,
2013-01-05 22:47:00,30.4,23.8,30.12,WSW,247,6.0,8.0,76,0.00,,FEW100,0.00,VWS V14.01,2013-01-06 03:47:00,
2013-01-05 22:52:00,30.5,23.9,30.12,WSW,252,4.0,8.0,76,0.00,,FEW100,0.00,VWS V14.01,2013-01-06 03:52:00,
2013-01-05 22:57:00,30.6,24.0,30.11,WSW,258,5.0,8.0,76,0.00,,FEW100,0.00,VWS V14.01,2013-01-06 03:57:00,
2013-01-05 23:00:00,31.1,24.4,30.08,WSW,242,2.0,5.0,76,0.00,,OVC,0.00,VWS V14.01,2013-01-06 04:00:00,
2013-01-05 23:02:00,30.8,24.1,30.12,WSW,252,5.0,8.0,76,0.00,,FEW100,0.00,VWS V14.01,2013-01-06 04:02:00,
2013-01-05 23:07:00,30.8,24.1,30.12,WSW,250,3.0,6.0,76,0.00,,FEW100,0.00,VWS V14.01,2013-01-06 04:07:00,
2013-01-05 23:12:00,30.8,24.1,30.12,West,260,2.0,7.0,76,0.00,,FEW100,0.00,VWS V14.01,2013-01-06 04:12:00,
2013-01-05 23:17:00,30.9,24.2,30.12,WSW,256,1.0,7.0,76,0.00,,FEW100,0.00,VWS V14.01,2013-01-06 04:17:00,
2013-01-05 23:23:00,30.8,24.1,30.11,WSW,249,1.0,7.0,76,0.00,,FEW100,0.00,VWS V14.01,2013-01-06 04:23:00,
2013-01-05 23:28:00,30.7,24.0,30.12,WSW,252,2.0,7.0,76,0.00,,FEW100,0.00,VWS V14.01,2013-01-06 04:28:00,
2013-01-05 23:30:00,31.5,24.5,30.08,SW,236,3.0,6.0,75,0.00,,OVC,0.00,VWS V14.01,2013-01-06 04:30:00,
2013-01-05 23:33:00,30.8,24.1,30.11,WSW,245,3.0,3.0,76,0.00,,FEW100,0.00,VWS V14.01,2013-01-06 04:33:00,
2013-01-05 23:38:00,30.9,24.2,30.10,WSW,242,4.0,5.0,76,0.00,,FEW100,0.00,VWS V14.01,2013-01-06 04:38:00,
2013-01-05 23:43:00,31.0,24.3,30.10,WSW,245,3.0,5.0,76,0.00,,FEW100,0.00,VWS V14.01,2013-01-06 04:43:00,
2013-01-05 23:48:00,31.2,24.5,30.09,SW,231,3.0,5.0,76,0.00,,OVC110,0.00,VWS V14.01,2013-01-06 04:48:00,
2013-01-05 23:53:00,31.2,24.2,30.08,WSW,248,1.0,5.0,75,0.00,,OVC110,0.00,VWS V14.01,2013-01-06 04:53:00,
2013-01-05 23:58:00,31.2,24.5,30.08,WSW,256,1.0,5.0,76,0.00,,OVC110,0.00,VWS V14.01,2013-01-06 04:58:00,